Weather in Bolshiye Ozerki

Russia / Oryol Oblast     53°12′40″N   37°28′07″E
temp.,
°C
wind,
m/s
gust,
m/s
humid.,
%
clouds,
%
prec.,
mm/h
press.,
hPa
HPBL,
m
12 april, mon
mon1200:00+6ene41169100 0.0 1030206
03:00+5ene51367100 0.0 1031274
06:00+4ene61462100 0.0 1030344
09:00+5e61284100 0.3 1029382
12:00+11e71073100 0.0 1027478
15:00+16e71063100 0.0 1026765
18:00+16ese6116148 0.0 1024400
21:00+12ese5167116 0.0 1025285
13 april, tue
tue1300:00+10ese5137582 0.0 1025238
03:00+9se41081100 0.0 1025160
06:00+8se4980100 0.0 1025133
09:00+12se51163100 0.0 1025339
12:00+17sse694574 0.0 1024883
15:00+20se71031100 0.0 10231786
18:00+17se611400 0.0 1022409
21:00+13ese410585 0.0 1022174
14 april, wed
wed1400:00+11se51462100 0.0 1022283
03:00+9se4971100 0.0 1022164
06:00+8se3874100 0.0 1021124
09:00+12se596074 0.0 1020291
12:00+17se684126 0.0 10191003
15:00+18sse6828100 0.0 10172083
18:00+16sse363976 0.0 1017152
21:00+12sw225689 0.0 101810
15 april, thu
thu1500:00+11n1159100 0.0 101710
03:00+10nw1164100 0.0 101710
06:00+9w1167100 0.0 101710
09:00+12se0168100 0.0 1017121
12:00+15e2351100 0.0 1016916
15:00+16sw3254100 0.1 10161009
18:00+14wnw3466100 0.1 1015207
21:00+12n4671100 0.1 1014114
16 april, fri
fri1600:00+12nnw2270100 0.2 101412
03:00+11ssw2377100 0.3 101447
06:00+10ene1178100 0.0 101410
09:00+13ese356699 0.0 1015421
12:00+16ese355361 0.0 10161097
15:00+18e5649100 1.4 10161545
18:00+16e71156100 1.9 1015625
21:00+13e41076100 5.4 1018365